GEESAT-4 06 (65124 NORAD) Tracking and Keplerian Element Data

This shows tracking and keplerian element data for the satellite.

Feedback or suggestion? Click here.




ElementValue
Catalog65124
NameGEESAT-4 06
Epoch Orbit1983
Epoch Day354.06120584
Epoch Year2025
RAAN284.5698
Inclination49.9848
Eccentricity0.0019752
Argument of Perigee76.1286
Mean Anonmoly284.1848
Mean Motion14.83464065
Decay Rate1.572E-05
L11 65124U 25170F 25354.06120584 .00001572 00000+0 21635-3 0 9992
L22 65124 49.9848 284.5698 0019752 76.1286 284.1848 14.83464065 19835



Live tracking and technical data element details for GEESAT-4 06 (NORAD 65124). GEESAT-4 06 can be tracked NOW for your location showing map with azimuth and elevation plus other details from your city location.







IsCatalogInMostPopularTable: catalog: 65124, numindb: 4
Update: records affected: 1



GetName: 65124 GEESAT-4 06

Hit Count: updated at: Sat, 11 Apr 2026 21:48:43 GMT